Detroit, MI

6:25 AM EST on February 22, 2017 (GMT -0500)
Detroit Metro Wayne County

Weather History for KDTW - January, 2013

Change the Weather History Date:

Sunday, January 13, 2013

  Actual Average Record
Temperature  
Mean Temperature 42 °F 25 °F  
Max Temperature 51 °F 32 °F 62 °F (1995)
Min Temperature 33 °F 19 °F -9 °F (1977)
Degree Days  
Heating Degree Days 23 40  
Month to date heating degree days 429 510  
Since 1 July heating degree days 2548 2807  
Cooling Degree Days 0 0  
Month to date cooling degree days 0 0  
Year to date cooling degree days 0 0  
Moisture  
Dew Point 38 °F    
Average Humidity 86    
Maximum Humidity 93    
Minimum Humidity 79    
Precipitation  
Precipitation 0.85 in 0.06 in 0.98 in (1927)
Month to date precipitation 1.63 0.89  
Year to date precipitation 1.63 0.89  
Snow  
Snow T in 0.40 in 8.50 in (1927)
Month to date snowfall 0.6 5.3  
Since 1 July snowfall 11.6 16.5  
Snow Depth 0.00 in    
Sea Level Pressure  
Sea Level Pressure 29.86 in    
Wind  
Wind Speed 9 mph (NW)    
Max Wind Speed 21 mph    
Max Gust Speed 26 mph    
Visibility 7 miles    
Events Rain , Snow    
T = Trace of Precipitation, MM = Missing Value Source: NWS Daily Summary

Daily Weather History Graph

Daily Weather History Graph

Search for Another Location

Airport or City:

Trip Planner

Search our weather history database for the weather conditions in past years. The results will help you decide how hot, cold, wet, or windy it might be!

Date:

Astronomy

Jan. 13, 2013 Rise Set
Actual Time 8:00 AM EST 5:24 PM EST
Civil Twilight 7:29 AM EST 5:55 PM EST
Nautical Twilight 6:54 AM EST 6:30 PM EST
Astronomical Twilight 6:20 AM EST 7:03 PM EST
Moon 8:55 AM EST (1/13) 8:05 PM EST (1/13)
Length of Visible Light 10h 26m
Length of Day
9h 24m
Waxing Crescent, 5% of the Moon is Illuminated
Jan 13
Waxing Crescent
Jan 18
First Quarter
Jan 26
Full
Feb 3
Last Quarter
Feb 10
New

Hourly Weather History & Observations

Time (EST) Temp. Windchill Dew Point Humidity Pressure Visibility Wind Dir Wind Speed Gust Speed Precip Events Conditions
12:09 AM 50.0 °F - 48.2 °F 94% 29.84 in 2.0 mi NE 3.5 mph - 0.01 in Rain Rain
12:53 AM 51.1 °F - 48.9 °F 92% 29.80 in 2.0 mi North 6.9 mph - 0.12 in Rain Rain
1:35 AM 51.8 °F - 50.0 °F 94% 29.77 in 2.5 mi North 12.7 mph - 0.12 in Rain Light Rain
1:53 AM 48.9 °F - 46.0 °F 90% 29.78 in 3.0 mi North 13.8 mph - 0.15 in Rain Rain
2:01 AM 48.2 °F - 42.8 °F 82% 29.78 in 6.0 mi North 17.3 mph - 0.01 in Rain Heavy Rain
2:15 AM 46.4 °F 40.4 °F 39.2 °F 76% 29.78 in 6.0 mi NNE 13.8 mph 23.0 mph 0.05 in Rain Rain
2:53 AM 44.1 °F 38.1 °F 39.0 °F 82% 29.79 in 7.0 mi NNW 11.5 mph - 0.12 in Rain Rain
3:04 AM 44.6 °F 38.8 °F 39.2 °F 81% 29.78 in 6.0 mi North 11.5 mph - 0.04 in Rain Heavy Rain
3:53 AM 43.0 °F 35.7 °F 39.0 °F 86% 29.77 in 7.0 mi North 15.0 mph - 0.16 in Rain Light Rain
4:53 AM 42.1 °F 34.9 °F 37.9 °F 85% 29.78 in 10.0 mi NW 13.8 mph - 0.06 in Rain Rain
5:11 AM 41.0 °F 33.5 °F 37.4 °F 87% 29.75 in 9.0 mi North 13.8 mph 20.7 mph 0.06 in Rain Light Rain
5:40 AM 41.0 °F 33.9 °F 37.4 °F 87% 29.74 in 10.0 mi North 12.7 mph 18.4 mph 0.06 in Rain Light Rain
5:53 AM 41.0 °F 35.2 °F 37.0 °F 86% 29.75 in 10.0 mi North 9.2 mph 18.4 mph 0.06 in   Overcast
6:10 AM 41.0 °F 35.8 °F 37.4 °F 87% 29.78 in 10.0 mi NNW 8.1 mph - N/A   Mostly Cloudy
6:53 AM 41.0 °F 35.2 °F 37.0 °F 86% 29.82 in 10.0 mi WNW 9.2 mph - N/A   Overcast
7:53 AM 41.0 °F 36.4 °F 37.0 °F 86% 29.83 in 10.0 mi NW 6.9 mph - N/A   Overcast
8:53 AM 41.0 °F - 37.0 °F 86% 29.86 in 10.0 mi Calm Calm - N/A   Overcast
9:53 AM 41.0 °F - 36.0 °F 82% 29.86 in 10.0 mi Calm Calm - N/A   Overcast
10:16 AM 41.0 °F 39.0 °F 37.4 °F 87% 29.87 in 10.0 mi Variable 3.5 mph - N/A   Overcast
10:53 AM 42.1 °F 38.4 °F 37.0 °F 82% 29.88 in 10.0 mi SW 5.8 mph - N/A   Overcast
11:24 AM 42.8 °F 38.6 °F 37.4 °F 81% 29.87 in 7.0 mi WSW 6.9 mph - N/A   Overcast
11:53 AM 42.1 °F 36.6 °F 37.0 °F 82% 29.89 in 8.0 mi WSW 9.2 mph - N/A   Overcast
12:25 PM 41.0 °F 35.8 °F 37.4 °F 87% 29.87 in 4.0 mi West 8.1 mph - 0.00 in   Light Drizzle
12:53 PM 41.0 °F 36.4 °F 37.0 °F 86% 29.87 in 6.0 mi West 6.9 mph - 0.00 in   Light Drizzle
1:53 PM 41.0 °F 35.8 °F 37.0 °F 86% 29.89 in 5.0 mi WNW 8.1 mph - 0.00 in   Light Drizzle
2:53 PM 41.0 °F 36.4 °F 37.9 °F 89% 29.86 in 8.0 mi NW 6.9 mph - 0.00 in   Overcast
3:53 PM 41.0 °F 36.4 °F 37.0 °F 86% 29.91 in 10.0 mi WNW 6.9 mph - N/A   Overcast
4:11 PM 41.0 °F 35.2 °F 37.4 °F 87% 29.91 in 2.5 mi WNW 9.2 mph - 0.00 in Rain Light Rain
4:53 PM 39.0 °F 32.8 °F 37.0 °F 93% 29.94 in 2.5 mi NW 9.2 mph - 0.02 in Rain Light Rain
5:53 PM 37.9 °F 32.1 °F 36.0 °F 93% 29.92 in 7.0 mi NNW 8.1 mph - 0.05 in Rain Light Rain
6:00 PM 37.4 °F 32.8 °F 35.6 °F 93% 29.91 in 7.0 mi North 5.8 mph - 0.01 in Rain Light Rain
6:53 PM 37.9 °F 34.4 °F 35.1 °F 89% 29.94 in 9.0 mi WNW 4.6 mph - 0.05 in Rain Light Rain
7:53 PM 37.9 °F 33.5 °F 35.1 °F 89% 29.94 in 10.0 mi West 5.8 mph - 0.04 in Rain Light Rain
8:33 PM 37.4 °F 30.8 °F 35.6 °F 93% 29.93 in 9.0 mi West 9.2 mph - 0.01 in Rain Light Rain
8:53 PM 37.0 °F 30.4 °F 35.1 °F 93% 29.96 in 7.0 mi West 9.2 mph - 0.01 in Rain Light Rain
9:53 PM 35.1 °F 25.5 °F 32.0 °F 89% 29.99 in 7.0 mi West 15.0 mph - 0.01 in Rain , Snow Light Rain
10:53 PM 34.0 °F 25.5 °F 30.0 °F 85% 30.00 in 9.0 mi West 11.5 mph - 0.00 in Snow Light Snow
11:00 PM 33.8 °F 23.9 °F 30.2 °F 87% 30.00 in 10.0 mi West 15.0 mph - 0.00 in   Overcast
11:53 PM 33.1 °F 23.4 °F 28.9 °F 85% 30.05 in 10.0 mi West 13.8 mph 21.9 mph 0.00 in   Overcast